Hourly Data Report for October 24, 2016

All times are specified in Local Standard Time (LST). Add 1 hour to adjust for Daylight Saving Time where and when it is observed.

TORONTO INTL A
ONTARIO

43°40'36.000" N
79°37'50.000" W
173.40 m
6158731
71624
YYZ

Download Data

Hourly Data (October 2016)
Hourly Data Report for October 24, 2016
Temp Definition
°C
Dew Point Temp Definition
°C
Rel Hum Definition
%
Wind Dir Definition
10's deg

Wind Spd Definition
km/h
Visibility Definition
km
Stn Press Definition
kPa
Hmdx Definition


Wind Chill Definition


Weather Definition


TIME
00:00 Legend Double Dagger 7.2 4.4 82 29 14 24.1 99.01     LegendNANA
01:00 Legend Double Dagger 5.9 4.1 88 28 13 24.1 99.09     Mainly Clear
02:00 Legend Double Dagger 6.5 4.0 84 28 10 24.1 99.16     LegendNANA
03:00 Legend Double Dagger 8.4 4.3 75 29 14 24.1 99.26     LegendNANA
04:00 Legend Double Dagger 7.9 3.0 71 36 18 24.1 99.31     Mostly Cloudy
05:00 Legend Double Dagger 7.3 2.6 72 35 17 24.1 99.42     LegendNANA
06:00 Legend Double Dagger 7.2 1.1 65 31 21 24.1 99.48     LegendNANA
07:00 Legend Double Dagger 7.1 -1.6 54 31 32 24.1 99.56     Mostly Cloudy
08:00 Legend Double Dagger 7.4 -0.8 56 33 12 24.1 99.64     LegendNANA
09:00 Legend Double Dagger 7.8 -0.7 55 31 31 24.1 99.70     LegendNANA
10:00 Legend Double Dagger 8.7 -1.1 50 30 34 24.1 99.74     Mostly Cloudy
11:00 Legend Double Dagger 8.7 -2.0 47 30 34 24.1 99.81     LegendNANA
12:00 Legend Double Dagger 9.4 -2.2 44 31 37 24.1 99.84     LegendNANA
13:00 Legend Double Dagger 10.1 -1.9 43 30 35 24.1 99.86     Mostly Cloudy
14:00 Legend Double Dagger 9.8 -2.5 42 30 39 24.1 99.91     LegendNANA
15:00 Legend Double Dagger 9.5 -1.5 46 32 43 24.1 99.95     LegendNANA
16:00 Legend Double Dagger 8.9 -0.4 52 32 38 24.1 99.99     Mostly Cloudy
17:00 Legend Double Dagger 7.9 -0.6 55 31 38 24.1 100.07     LegendNANA
18:00 Legend Double Dagger 7.4 -2.3 50 34 35 24.1 100.14     LegendNANA
19:00 Legend Double Dagger 6.8 -1.6 55 31 30 24.1 100.19     Mostly Cloudy
20:00 Legend Double Dagger 5.5 -1.6 60 28 15 24.1 100.23     LegendNANA
21:00 Legend Double Dagger 5.5 -0.3 66 26 21 24.1 100.27     LegendNANA
22:00 Legend Double Dagger 5.4 -0.4 66 27 17 24.1 100.29     Mostly Cloudy
23:00 Legend Double Dagger 5.8 -0.3 65 28 23 24.1 100.26     LegendNANA

Notes on Data Quality.

Legend

  • E = Estimated
  • M = Missing
  • NA = Not Available
  • ‡ = Partner data that is not subject to review by the National Climate Archives
Date modified: